Khrabrovo current weather conditions

sailwx.info

Wind from 170 at 3 knots

Air temperature -4.0° C
Visibility: greater than 2.1 NM
Dewpoint -5.0° C
Present weather: Mist.

Last reported at 2019-Jan-22 05:30 UTC.
Time now 2019-Jan-22 07:07 UTC

Location: N 54°53' E 020°36'.
View on Google Maps.

See reports from other nearby stations

  
Tides and Currents Weather Stations Pressure Air Temp Water Temp Dewpoint Dewpoint Depression Visibility Wind Speed Wind Dir Waves Ship Positions
date/time (UTC)wind fromknots sea level pressurealtimeterstation pressurevisibilityair tempwater tempwave heightnotes
2019-Jan-22 05:30 170 3 2.1-4.0 Mist.
2019-Jan-22 05:00 160 3 2.3-4.0 Mist.
2019-Jan-22 04:30 170 3 2.4-4.0 Mist.
2019-Jan-22 04:00 140 3 2.7-4.0 Mist.
2019-Jan-22 03:30 120 1 2.7-4.0 Mist.
2019-Jan-22 03:00 2.7-4.0 Mist.
2019-Jan-22 02:30 180 3 2.7-4.0 Mist.
2019-Jan-22 02:00 200 3 2.7-4.0 Mist.
2019-Jan-22 01:30 200 3 2.7-4.0 Mist.
2019-Jan-22 01:00 210 5 3.2-4.0
2019-Jan-22 00:30 220 7 3.2-4.0
2019-Jan-22 00:00 210 5 2.7-4.0 Mist.
2019-Jan-21 23:30 210 7 2.7-4.0 Mist.
2019-Jan-21 23:00 210 7 2.7-4.0 Mist.
2019-Jan-21 22:30 220 7 3.2-4.0
2019-Jan-21 22:00 220 9 3.2-3.0
2019-Jan-21 21:30 220 9 3.2-3.0
2019-Jan-21 21:00 220 9 3.2-3.0
2019-Jan-21 20:30 220 11 3.2-2.0
2019-Jan-21 20:00 220 9 3.2-2.0
2019-Jan-21 19:30 230 7 3.2-1.0
2019-Jan-21 19:00 230 7 3.8-1.0
2019-Jan-21 18:30 230 7 4.3-1.0
2019-Jan-21 18:00 230 7 3.8-1.0
2019-Jan-21 17:30 230 9 3.2-0.0
2019-Jan-21 17:00 240 7 3.8-0.0
2019-Jan-21 16:30 260 5 2.7-0.0 Snow showers.
2019-Jan-21 16:00 250 9 1.5-0.0 Snow showers.
2019-Jan-21 15:30 240 9 2.3-0.0 Snow showers.
2019-Jan-21 15:00 240 9 2.7-0.0 Light snow showers.
2019-Jan-21 14:30 260 5 2.6 1.0 Light snow showers.
2019-Jan-21 14:00 250 5 0.7 1.0 Snow showers.
2019-Jan-21 13:30 230 5 5.4 2.0 Light snow.
2019-Jan-21 13:00 240 3 5.4 2.0
2019-Jan-21 12:30 240 5 5.4 1.0
2019-Jan-21 12:00 260 3 4.3 1.0 Light snow.
2019-Jan-21 11:30 220 3 4.3 1.0
2019-Jan-21 11:00 220 7 3.2-0.0 Light snow.
2019-Jan-21 10:30 220 7 2.7-0.0 Mist.
2019-Jan-21 10:00 220 9 2.7-1.0 Mist.
2019-Jan-21 09:30 230 9 3.8-1.0
2019-Jan-21 09:00 220 7 3.8-2.0
2019-Jan-21 08:30 220 7 4.9-2.0
2019-Jan-21 08:00 220 7 4.9-2.0
2019-Jan-21 07:30 220 5 4.3-2.0
2019-Jan-21 07:00 220 5 4.3-3.0
2019-Jan-21 06:30 220 5 5.4-4.0
2019-Jan-21 06:00 220 5 5.4-5.0
2019-Jan-21 05:30 220 5 5.4-7.0
2019-Jan-21 05:00 230 5 5.4-6.0
2019-Jan-21 04:30 240 7 5.4-6.0
2019-Jan-21 04:00 250 7 5.4-6.0
2019-Jan-21 03:30 250 7 5.4-5.0
2019-Jan-21 03:00 240 7 5.4-5.0
2019-Jan-21 02:30 240 7 5.4-5.0
2019-Jan-21 02:00 240 5 5.4-7.0
2019-Jan-21 01:30 240 7 5.4-6.0
2019-Jan-21 01:00 230 5 5.4-6.0
2019-Jan-21 00:30 240 5 5.4-7.0
2019-Jan-21 00:00 240 7 5.4-5.0
2019-Jan-20 23:30 240 7 5.4-5.0
2019-Jan-20 23:00 240 5 5.4-4.0
2019-Jan-20 22:30 250 5 5.4-5.0
2019-Jan-20 22:00 230 3 5.4-5.0
2019-Jan-20 21:30 240 5 5.4-4.0
2019-Jan-20 21:00 230 5 5.4-5.0
2019-Jan-20 20:30 250 5 5.4-5.0
2019-Jan-20 20:00 260 5 5.4-5.0
2019-Jan-20 19:30 270 3 5.4-4.0
2019-Jan-20 19:00 290 5 5.4-2.0
2019-Jan-20 18:30 310 5 5.4-2.0
2019-Jan-20 18:00 300 3 5.4-2.0
2019-Jan-20 17:30 320 3 5.4-1.0
2019-Jan-20 17:00 340 7 5.4-1.0
2019-Jan-20 16:30 270 1 5.4-1.0
2019-Jan-20 16:00 220 3 5.4-1.0
2019-Jan-20 15:30 5.4-1.0
2019-Jan-20 15:00 270 5 5.4-1.0 Light snow showers.
2019-Jan-20 14:30 270 5 5.4-0.0 Light snow showers.
2019-Jan-20 14:00 310 7 5.4-0.0 Light snow showers.
2019-Jan-20 13:30 340 3 4.9-0.0 Light snow showers.
2019-Jan-20 13:00 4.9-0.0 Light snow showers.
2019-Jan-20 12:30 020 5 1.2-0.0 Snow showers.
2019-Jan-20 12:00 360 5 1.5-0.0 Light snow showers.
2019-Jan-20 11:30 260 11 4.3 1.0 Light snow showers.
2019-Jan-20 11:00 250 13 2.2 1.0 Light snow showers.
2019-Jan-20 10:30 250 15 4.3 1.0 Light snow showers.
2019-Jan-20 10:00 260 13 5.4 1.0
2019-Jan-20 09:30 250 17 4.9 1.0 Light snow showers.
2019-Jan-20 09:00 250 15 1.4 1.0 Light snow showers.
2019-Jan-20 08:30 250 15 2.5 1.0 Light snow showers.
2019-Jan-20 08:00 250 15 5.4 1.0
2019-Jan-20 07:30 250 15 4.9 1.0 Light rain showers.
2019-Jan-20 07:00 250 13 5.4 1.0